TimeICT,TemperatureF,Dew PointF,Humidity,Sea Level PressureIn,VisibilityMPH,Wind Direction,Wind SpeedMPH,Gust SpeedMPH,PrecipitationIn,Events,Conditions,WindDirDegrees,DateUTC
12:00 AM,84.2,77.0,79,29.83,6.2,SSW,5.8,-,N/A,,Scattered Clouds,200,2013-03-01 17:00:00
12:30 AM,84.2,77.0,79,29.83,6.2,SSW,5.8,-,N/A,,Scattered Clouds,200,2013-03-01 17:30:00
1:00 AM,84,77,75,29.84,6,SSW,10.4,,,,Scattered Clouds,200,2013-03-01 18:00:00
1:00 AM,84.2,77.0,79,29.83,6.2,SSW,10.4,-,N/A,,Scattered Clouds,200,2013-03-01 18:00:00
1:30 AM,84.2,77.0,79,29.83,6.2,SSW,4.6,-,N/A,,Scattered Clouds,210,2013-03-01 18:30:00
2:00 AM,84.2,77.0,79,29.83,6.2,SSW,5.8,-,N/A,,Scattered Clouds,210,2013-03-01 19:00:00
2:30 AM,82.4,77.0,84,29.83,6.2,SSW,4.6,-,N/A,,Scattered Clouds,210,2013-03-01 19:30:00
3:00 AM,82.4,77.0,84,29.80,6.2,SSW,5.8,-,N/A,,Scattered Clouds,210,2013-03-01 20:00:00
3:30 AM,82.4,77.0,84,29.80,6.2,SSW,3.5,-,N/A,,Scattered Clouds,210,2013-03-01 20:30:00
4:00 AM,82.4,77.0,84,29.80,6.2,SSW,4.6,-,N/A,,Scattered Clouds,210,2013-03-01 21:00:00
4:30 AM,82.4,77.0,84,29.80,6.2,SSW,3.5,-,N/A,,Scattered Clouds,200,2013-03-01 21:30:00
5:00 AM,82.4,77.0,84,29.80,6.2,South,3.5,-,N/A,,Scattered Clouds,190,2013-03-01 22:00:00
5:30 AM,82.4,77.0,84,29.80,6.2,South,3.5,-,N/A,,Scattered Clouds,190,2013-03-01 22:30:00
6:00 AM,82.4,77.0,84,29.83,6.2,South,3.5,-,N/A,,Scattered Clouds,180,2013-03-01 23:00:00
6:30 AM,82.4,77.0,84,29.83,6.2,ESE,3.5,-,N/A,,Scattered Clouds,120,2013-03-01 23:30:00
7:00 AM,81,77,85,29.86,6,ESE,4.6,,,,Mist,120,2013-03-02 00:00:00
7:00 AM,80.6,77.0,89,29.86,5.6,ESE,4.6,-,N/A,,Mostly Cloudy,120,2013-03-02 00:00:00
7:30 AM,82.4,77.0,84,29.86,5.6,ESE,3.5,-,N/A,,Mostly Cloudy,120,2013-03-02 00:30:00
8:00 AM,82.4,78.8,89,29.86,5.6,ESE,3.5,-,N/A,,Scattered Clouds,120,2013-03-02 01:00:00
8:30 AM,84.2,77.0,79,29.89,5.6,East,5.8,-,N/A,,Scattered Clouds,90,2013-03-02 01:30:00
9:00 AM,84.2,77.0,79,29.89,5.6,SE,6.9,-,N/A,,Mostly Cloudy,130,2013-03-02 02:00:00
9:30 AM,86.0,77.0,74,29.92,5.6,South,5.8,-,N/A,,Mostly Cloudy,180,2013-03-02 02:30:00
10:00 AM,87.8,77.0,70,29.92,5.6,South,3.5,-,N/A,,Mostly Cloudy,190,2013-03-02 03:00:00
10:30 AM,87.8,77.0,70,29.92,5.6,SW,6.9,-,N/A,,Mostly Cloudy,230,2013-03-02 03:30:00
11:00 AM,89.6,77.0,66,29.92,5.6,South,4.6,-,N/A,,Mostly Cloudy,180,2013-03-02 04:00:00
11:30 AM,89.6,77.0,66,29.89,6.2,SW,5.8,-,N/A,,Mostly Cloudy,220,2013-03-02 04:30:00
12:00 PM,89.6,75.2,62,29.89,6.2,SSW,6.9,-,N/A,,Mostly Cloudy,210,2013-03-02 05:00:00
12:30 PM,91.4,75.2,59,29.89,6.2,South,9.2,-,N/A,,Mostly Cloudy,180,2013-03-02 05:30:00
1:00 PM,92,76,51,29.88,6,SSW,13.8,,,,Partly Cloudy,200,2013-03-02 06:00:00
1:00 PM,91.4,75.2,59,29.86,6.2,SSW,13.8,-,N/A,,Mostly Cloudy,200,2013-03-02 06:00:00
1:30 PM,93.2,75.2,56,29.86,6.2,SSW,6.9,-,N/A,,Mostly Cloudy,200,2013-03-02 06:30:00
2:00 PM,93.2,75.2,56,29.83,6.2,South,8.1,-,N/A,,Mostly Cloudy,170,2013-03-02 07:00:00
2:30 PM,93.2,75.2,56,29.83,6.2,SE,5.8,-,N/A,,Mostly Cloudy,140,2013-03-02 07:30:00
3:00 PM,95.0,75.2,53,29.80,6.2,SSW,8.1,-,N/A,,Mostly Cloudy,210,2013-03-02 08:00:00
3:30 PM,95.0,75.2,53,29.80,6.2,West,4.6,-,N/A,,Mostly Cloudy,260,2013-03-02 08:30:00
4:00 PM,95.0,75.2,53,29.80,6.2,SSW,3.5,-,N/A,,Mostly Cloudy,200,2013-03-02 09:00:00
4:30 PM,95.0,75.2,53,29.80,6.2,South,6.9,-,N/A,,Mostly Cloudy,190,2013-03-02 09:30:00
5:00 PM,93.2,75.2,56,29.80,6.2,WSW,8.1,-,N/A,,Mostly Cloudy,240,2013-03-02 10:00:00
5:30 PM,93.2,75.2,56,29.80,6.2,SSW,11.5,-,N/A,,Mostly Cloudy,210,2013-03-02 10:30:00
6:00 PM,91.4,75.2,59,29.80,6.2,SSW,6.9,-,N/A,,Mostly Cloudy,210,2013-03-02 11:00:00
6:30 PM,89.6,75.2,62,29.80,6.2,SW,5.8,-,N/A,,Mostly Cloudy,230,2013-03-02 11:30:00
7:00 PM,89,75,56,29.82,6,SW,9.2,,,,Scattered Clouds,230,2013-03-02 12:00:00
7:00 PM,89.6,75.2,62,29.80,6.2,SW,9.2,-,N/A,,Mostly Cloudy,230,2013-03-02 12:00:00
7:30 PM,87.8,75.2,66,29.80,6.2,WSW,9.2,-,N/A,,Scattered Clouds,250,2013-03-02 12:30:00
8:00 PM,87.8,75.2,66,29.83,6.2,SW,11.5,-,N/A,,Scattered Clouds,220,2013-03-02 13:00:00
8:30 PM,87.8,77.0,70,29.83,6.2,SSW,8.1,-,N/A,,Scattered Clouds,210,2013-03-02 13:30:00
9:00 PM,87.8,73.4,62,29.86,6.2,SSW,9.2,-,N/A,,Scattered Clouds,210,2013-03-02 14:00:00
9:30 PM,87.8,73.4,62,29.86,6.2,SSW,9.2,-,N/A,,Scattered Clouds,210,2013-03-02 14:30:00
10:00 PM,86.0,77.0,74,29.89,6.2,SSE,3.5,-,N/A,,Scattered Clouds,160,2013-03-02 15:00:00
10:30 PM,86.0,75.2,70,29.89,6.2,SW,4.6,-,N/A,,Scattered Clouds,220,2013-03-02 15:30:00
11:00 PM,86.0,77.0,74,29.89,6.2,SSW,4.6,-,N/A,,Scattered Clouds,200,2013-03-02 16:00:00
11:30 PM,86.0,77.0,74,29.89,6.2,South,8.1,-,N/A,,Scattered Clouds,190,2013-03-02 16:30:00